User: anonymous   Login
Location: Unspecified
(0.0000°N, 0.0000°E)
Time: 19:18:20
(UTC+00:00)
Language:

OBJECT D - Orbit

View from above orbital plane
View from above orbital plane
View from above satellite
View from above satellite

Ground track
Ground track

The orbit is defined by the following mean orbital elements,

1 56156U          26145.42357264 +.00000000 +00000-0 +10383-3 0 00005
2 56156  97.5020 332.8975 0001611 101.3802 258.7610 15.14304527    00
Epoch (UTC): 25 May 2026 10:09:56
Eccentricity: 0.0001611
inclination: 97.5020°
perigee height: 522 km
apogee height: 524 km
right ascension of ascending node: 332.8975°
argument of perigee: 101.3802°
revolutions per day: 15.14304527
mean anomaly at epoch: 258.7610°

The dashed part of the orbit path shows where the satellite is in the earth's shadow,  

DLR